TimeEDT,TemperatureF,Dew PointF,Humidity,Sea Level PressureIn,VisibilityMPH,Wind Direction,Wind SpeedMPH,Gust SpeedMPH,PrecipitationIn,Events,Conditions,WindDirDegrees,DateUTC
12:53 AM,64.0,57.9,80,30.10,10.0,ENE,4.6,-,N/A,,Overcast,60,2011-10-11 04:53:00
1:53 AM,62.1,57.9,86,30.09,10.0,NE,3.5,-,N/A,,Overcast,40,2011-10-11 05:53:00
2:53 AM,63.0,57.9,84,30.08,10.0,Calm,Calm,-,N/A,,Overcast,0,2011-10-11 06:53:00
3:53 AM,62.1,57.0,84,30.07,10.0,NE,3.5,-,N/A,,Mostly Cloudy,50,2011-10-11 07:53:00
4:53 AM,62.1,57.9,86,30.08,10.0,ENE,4.6,-,N/A,,Mostly Cloudy,60,2011-10-11 08:53:00
5:53 AM,60.8,57.2,88,30.10,10.0,NNE,5.8,-,N/A,Rain,Light Rain,30,2011-10-11 09:53:00
6:53 AM,62.1,57.9,86,30.09,10.0,NE,5.8,-,0.01,Rain,Light Rain,50,2011-10-11 10:53:00
7:53 AM,61.0,57.9,90,30.09,8.0,NNE,6.9,-,0.01,Rain,Light Rain,30,2011-10-11 11:53:00
8:53 AM,61.0,57.9,90,30.10,8.0,Variable,3.5,-,0.01,Rain,Light Rain,0,2011-10-11 12:53:00
9:53 AM,63.0,59.0,87,30.10,9.0,NE,9.2,-,0.01,,Overcast,40,2011-10-11 13:53:00
10:53 AM,64.0,59.0,84,30.11,10.0,East,4.6,-,N/A,,Overcast,90,2011-10-11 14:53:00
11:53 AM,64.0,57.0,78,30.10,10.0,ENE,6.9,-,0.00,,Overcast,70,2011-10-11 15:53:00
12:53 PM,64.9,57.0,75,30.09,10.0,ENE,8.1,-,0.00,Rain,Light Rain,60,2011-10-11 16:53:00
1:53 PM,64.9,55.0,70,30.05,10.0,NE,16.1,-,0.00,,Overcast,40,2011-10-11 17:53:00
2:53 PM,62.1,55.9,80,30.04,10.0,NE,12.7,-,0.01,Rain,Light Rain,50,2011-10-11 18:53:00
3:53 PM,60.8,55.4,82,30.05,10.0,ENE,6.9,-,N/A,,Overcast,70,2011-10-11 19:53:00
4:53 PM,61.0,55.0,81,30.02,10.0,NNE,11.5,-,0.00,,Overcast,30,2011-10-11 20:53:00
5:53 PM,62.1,55.9,80,30.00,8.0,NNE,6.9,-,0.01,Rain,Light Rain,20,2011-10-11 21:53:00
6:53 PM,60.1,57.0,90,29.99,10.0,NE,5.8,-,0.06,Rain,Light Rain,50,2011-10-11 22:53:00
7:53 PM,60.1,57.0,90,29.97,10.0,NNE,9.2,-,0.01,,Overcast,30,2011-10-11 23:53:00
8:53 PM,60.1,57.9,93,29.97,7.0,NE,11.5,20.7,0.01,Rain,Light Rain,50,2011-10-12 00:53:00
9:07 PM,60.8,59.0,94,29.99,6.0,NE,8.1,-,0.00,Rain,Light Rain,50,2011-10-12 01:07:00
9:53 PM,60.1,59.0,96,29.98,4.0,Calm,Calm,-,0.02,Rain,Light Rain,0,2011-10-12 01:53:00
10:00 PM,60.8,59.0,94,30.01,4.0,Calm,Calm,-,0.00,Rain,Light Rain,0,2011-10-12 02:00:00
10:18 PM,60.8,59.0,94,30.00,3.0,Variable,3.5,-,0.03,Rain,Light Rain,0,2011-10-12 02:18:00
10:34 PM,59.0,59.0,100,30.00,2.5,ENE,4.6,-,0.05,Rain,Light Rain,60,2011-10-12 02:34:00
10:46 PM,59.0,59.0,100,29.99,3.0,NE,6.9,-,0.06,Rain,Light Rain,40,2011-10-12 02:46:00
10:53 PM,59.0,59.0,100,29.97,3.0,ENE,6.9,-,0.06,Rain,Light Rain,60,2011-10-12 02:53:00
11:17 PM,59.0,59.0,100,29.99,4.0,NE,9.2,-,0.01,Rain,Light Rain,40,2011-10-12 03:17:00
11:37 PM,59.0,59.0,100,29.98,3.0,NE,11.5,-,0.03,Rain,Light Rain,50,2011-10-12 03:37:00
11:45 PM,60.8,59.0,94,29.98,3.0,NE,10.4,-,0.03,Rain,Light Rain,50,2011-10-12 03:45:00
11:53 PM,60.1,59.0,96,29.95,2.5,NE,10.4,-,0.04,Rain,Light Rain,50,2011-10-12 03:53:00